1399507230486,2.41093
1399507290486,2.38237
1399507350486,2.40232
1399507410486,2.39997
1399507470486,2.42124
1399507530486,2.39770
1399507590486,2.38484
1399507650486,2.41902
1399507710486,2.40476
1399507770486,2.39870
1399507830486,2.42491
1399507890486,2.45824
1399507950486,2.39149
1399508010486,2.41465
1399508070486,2.42509
1399508130486,2.42838
1399508190486,2.43059
1399508250486,2.42087
1399508310486,2.40698
1399508370486,2.45384
1399508430486,2.40778
1399508490486,2.40981
1399508550486,2.40925
1399508610486,2.39580
1399508670486,2.40118
1399508730486,2.40442
1399508790486,2.40133
1399508850486,2.39417
1399508910486,2.40943
1399508970486,2.39087
1399509030486,2.39932
1399509090486,2.39424
1399509150486,2.43819
1399509210486,2.40345
1399509270486,2.41350
1399509330486,2.39150
1399509390486,2.40097
1399509450486,2.39600
1399509510486,2.40540
1399509570486,2.42341
1399509630486,2.43155
1399509690486,2.38626
1399509750486,2.40246
1399509810486,2.43461
1399509870486,2.40377
1399509930486,2.40936
1399509990486,2.39438
1399510050486,2.40041
1399510110486,2.40060
1399510170486,2.40700
1399510230486,2.40840
1399510290486,2.38879
1399510350486,2.38947
1399510410486,2.43246
1399510470486,2.44076
1399510530486,2.39411
1399510590486,2.42821
1399510650486,2.44961
1399510710486,2.39527
1399510770486,2.40198
1399510830496,2.39022
1399510890496,2.40894
1399510950496,2.37343
1399511010496,2.41344
1399511070496,2.41599
1399511130496,2.40618
1399511190496,2.39089
1399511250496,2.42354
1399511310496,2.40495
1399511370496,2.41683
1399511430496,2.43458
1399511490496,2.41717
1399511550496,2.40406
1399511610496,2.39216
1399511670496,2.40299
1399511730496,2.39092
1399511790496,2.41085
1399511850496,2.42603
1399511910496,2.43313
1399511970496,2.43984
1399512030496,2.41562
1399512090496,2.40824
1399512150496,2.41162
1399512210496,2.45444
1399512270496,2.41091
1399512330496,2.43239
1399512390496,2.41192
1399512450496,2.40315
1399512510496,2.41461
1399512570496,2.40045
1399512630496,2.38712
1399512690496,2.40098
1399512750496,2.38842
1399512810496,2.42617
1399512870496,2.41816
1399512930496,2.41034
1399512990496,2.39474
1399513050496,2.40787
1399513110496,2.42069
1399513170496,2.43887
1399513230496,2.41973
1399513290496,2.42221
1399513350496,2.43480
1399513410496,2.44124
1399513470496,2.42661
1399513530496,2.44283
1399513590496,2.41261
1399513650496,2.43587
1399513710496,2.45596
1399513770496,2.43866
1399513830496,2.43404
1399513890496,2.44713
1399513950496,2.47628
1399514010496,2.45707
1399514070496,2.45822
1399514130496,2.44484
1399514190496,2.44494
1399514250496,2.46078
1399514310496,2.42781
1399514370496,2.47499
1399514430507,2.45675
1399514490507,2.44367
1399514550507,2.44994
1399514610507,2.44167
1399514670507,2.45778
1399514730507,2.46040
1399514790507,2.44626
1399514850507,2.48437
1399514910507,2.47328
1399514970507,2.44969
1399515030507,2.42856
1399515090507,2.48728
1399515150507,2.46474
1399515210507,2.46359
1399515270507,2.45746
1399515330507,2.44061
1399515390507,2.46734
1399515450507,2.44873
1399515510507,2.43517
1399515570507,2.46430
1399515630507,2.47107
1399515690507,2.47321
1399515750507,2.45771
1399515810507,2.46315
1399515870507,2.49349
1399515930507,2.46522
1399515990507,2.45430
1399516050507,2.45734
1399516110507,2.45297
1399516170507,2.44240
1399516230507,2.42449
1399516290507,2.47635
1399516350507,2.43141
1399516410507,2.46947
1399516470507,2.46468
1399516530507,2.45272
1399516590507,2.46495
1399516650507,2.43287
1399516710507,2.41368
1399516770507,2.42520
1399516830507,2.42622
1399516890507,2.45090
1399516950507,2.42890
1399517010507,2.42619
1399517070507,2.46602
1399517130507,2.43326
1399517190507,2.44844
1399517250507,2.41308
1399517310507,2.43663
1399517370507,2.44700
1399517430507,2.44458
1399517490507,2.43749
1399517550507,2.46447
1399517610507,2.44797
1399517670507,2.42737
1399517730507,2.43016
1399517790507,2.43612
1399517850507,2.44105
1399517910507,2.43374
1399517970507,2.44151
1399518030516,2.44456
1399518090516,2.43525
1399518150516,2.43423
1399518210516,2.46889
1399518270516,2.40259
1399518330516,2.45047
1399518390516,2.46381
1399518450516,2.42950
1399518510516,2.43450
1399518570516,2.44730
1399518630516,2.46950
1399518690516,2.43225
1399518750516,2.46711
1399518810516,2.43228
1399518870516,2.45051
1399518930516,2.43568
1399518990516,2.44829
1399519050516,2.43064
1399519110516,2.43407
1399519170516,2.44476
1399519230517,2.45732
1399519290516,2.44091
1399519350516,2.45701
1399519410516,2.43814
1399519470516,2.42900
1399519530516,2.44165
1399519590516,2.45005
1399519650516,2.45341
1399519710516,2.45676
1399519770516,2.44175
1399519830516,2.44054
1399519890516,2.44641
1399519950516,2.44591
1399520010516,2.41622
1399520070516,2.43559
1399520130516,2.42310
1399520190516,2.43997
1399520250516,2.43124
1399520310516,2.43515
1399520370516,2.46150
1399520430516,2.44246
1399520490516,2.44704
1399520550517,2.43112
1399520610517,2.44191
1399520670516,2.45364
1399520730516,2.43978
1399520790516,2.44401
1399520850516,2.44423
1399520910516,2.46146
1399520970516,2.43097
1399521030516,2.43077
1399521090516,2.42383
1399521150516,2.43355
1399521210516,2.85843
1399521270516,2.45563
1399521330516,2.44694
1399521390516,2.43045
1399521450516,2.45817
1399521510516,2.45131
1399521570516,2.46237
1399521630526,2.44996
1399521690526,2.44009
1399521750526,2.44461
1399521810526,2.24357
1399521870526,2.45337
1399521930526,2.53789
1399521990526,2.57447
1399522050526,2.44798
1399522110526,2.46656
1399522170526,2.44127
1399522230526,2.45588
1399522290526,2.46608
1399522350526,2.47144
1399522410526,2.44658
1399522470526,2.43142
1399522530526,2.42801
1399522590526,2.45982
1399522650526,2.47932
1399522710526,2.46288
1399522770526,2.42960
1399522830526,2.63264
1399522890526,2.47083
1399522950526,2.47086
1399523010526,2.45444
1399523070526,2.47614
1399523130526,2.47268
1399523190526,2.48811
1399523250526,2.43709
1399523310526,2.47767
1399523370526,2.49188
1399523430526,2.46711
1399523490526,2.44192
1399523550526,2.46296
1399523610526,2.44424
1399523670526,2.45795
1399523730526,2.45947
1399523790526,2.46812
1399523850526,2.45910
1399523910526,2.49617
1399523970526,2.45364
1399524030526,2.45598
1399524090526,2.44363
1399524150526,2.49636
1399524210526,2.48266
1399524270526,2.48967
1399524330526,2.47074
1399524390526,2.48987
1399524450526,2.46327
1399524510526,2.44971
1399524570526,2.46877
1399524630526,2.44683
1399524690526,2.47839
1399524750526,2.47984
1399524810526,2.48896
1399524870526,2.49534
1399524930526,2.44150
1399524990526,2.46674
1399525050526,2.47917
1399525110526,2.47340
1399525170526,2.47930
1399525230536,2.47485
1399525290536,2.47244
1399525350536,2.44289
1399525410536,2.48103
1399525470536,2.45573
1399525530536,2.48260
1399525590536,2.45782
1399525650536,2.45081
1399525710536,2.46787
1399525770536,2.47488
1399525830536,2.45347
1399525890536,2.49309
1399525950536,2.47055
1399526010536,2.45405
1399526070536,2.45522
1399526130536,2.45129
1399526190536,2.46084
1399526250536,2.46152
1399526310536,2.46915
1399526370536,2.47227
1399526430536,2.46565
1399526490536,2.43373
1399526550536,2.47309
1399526610536,2.48130
1399526670536,2.46199
1399526730536,2.48542
1399526790536,2.46213
1399526850536,2.47699
1399526910536,2.43990
1399526970536,2.45802
1399527030536,2.46634
1399527090536,2.49220
1399527150536,2.45889
1399527210536,2.44952
1399527270536,2.44777
1399527330536,2.47372
1399527390536,2.48048
1399527450536,2.45003
1399527510536,2.47833
1399527570536,2.50058
1399527630536,2.45793
1399527690536,2.47234
1399527750536,2.49133
1399527810536,2.47490
1399527870536,2.47072
1399527930536,2.46005
1399527990536,2.47266
1399528050536,2.46512
1399528110536,2.47497
1399528170536,2.44805
1399528230536,2.46920
1399528290536,2.45017
1399528350536,2.47053
1399528410536,2.46671
1399528470536,2.43862
1399528530536,2.46976
1399528590536,2.42785
1399528650536,2.44891
1399528710536,2.47495
1399528770536,2.46684
1399528830545,2.45288
1399528890545,2.44384
1399528950545,2.47762
1399529010545,2.44340
1399529070545,2.48382
1399529130545,2.45955
1399529190545,2.47267
1399529250545,2.44957
1399529310545,2.46720
1399529370545,2.46745
1399529430545,2.44453
1399529490545,2.43191
1399529550545,2.46506
1399529610545,2.46100
1399529670545,2.45358
1399529730545,2.46513
1399529790545,2.47605
1399529850545,2.46619
1399529910545,2.47007
1399529970545,2.45188
1399530030545,2.46788
1399530090545,2.43803
1399530150545,2.45476
1399530210545,2.46715
1399530270545,2.47201
1399530330545,2.43996
1399530390545,2.46262
1399530450545,2.46409
1399530510545,2.46217
1399530570545,2.46764
1399530630545,2.44266
1399530690545,2.46031
1399530750545,2.45580
1399530810545,2.46133
1399530870545,2.44959
1399530930545,2.42312
1399530990545,2.44151
1399531050545,2.45977
1399531110545,2.43969
1399531170545,2.58628
1399531230545,2.44829
1399531290545,2.42131
1399531350545,2.44075
1399531410545,2.46340
1399531470545,2.44949
1399531530545,2.44467
1399531590545,2.42212
1399531650545,2.43610
1399531710545,2.44718
1399531770545,2.43851
1399531830545,2.46484
1399531890545,2.43671
1399531950545,2.41219
1399532010545,2.43585
1399532070545,2.43460
1399532130545,2.42977
1399532190545,2.40733
1399532250545,2.45653
1399532310545,2.45073
1399532370545,2.43580
1399532430554,2.46265
1399532490554,2.45709
1399532550554,2.44685
1399532610554,2.47506
1399532670554,2.43619
1399532730554,2.47023
1399532790554,2.46141
1399532850554,2.46821
1399532910554,2.45040
1399532970554,2.44175
1399533030554,2.47303
1399533090554,2.40710
1399533630554,2.42789
1399533690554,2.45829
1399533750554,2.45545
1399533810554,2.39359
1399533870554,2.44112
1399533930554,2.54768
1399533990554,2.42139
1399534050554,2.43262
1399534110554,2.42639
1399534170554,2.40979
1399534230554,2.43893
1399534290554,2.43737
1399534350554,2.43941
1399534410554,2.45022
1399534470554,2.44263
1399534530554,2.45702
1399534590554,2.45302
1399534650554,2.45850
1399534710554,2.43911
1399534770554,2.43849
1399534830554,2.44476
1399534890554,2.46489
1399534950554,2.42929
1399535010554,2.48277
1399535070554,2.43136
1399535130554,2.42391
1399535190554,2.44785
1399535250554,2.43515
1399535310554,2.42907
1399535370554,2.43856
1399535430554,2.44838
1399535490554,2.45835
1399535550554,2.40641
1399535610554,2.43989
1399535670554,2.42813
1399535730554,2.45478
1399535790554,2.46572
1399535850554,2.43587
1399535910554,2.43652
1399535970554,2.43290
1399536030564,2.70429
1399536090564,2.39567
1399536150564,2.41763
1399536210564,2.42110
1399536270564,2.43872
1399536330564,2.43745
1399536390564,2.43920
1399536450564,2.44113
1399536510564,2.43714
1399536570564,2.44201
1399536630564,2.39937
1399536690564,2.38470
1399536750564,2.56188
1399536810564,2.42697
1399536870564,2.42314
1399536930564,2.43176
1399536990564,2.43583
1399537050564,2.41625
1399537110564,2.41660
1399537170564,2.43149
1399537230564,2.45246
1399537290564,2.44168
1399537350564,2.39679
1399537410564,2.44762
1399537470564,2.42790
1399537530564,2.45800
1399537590564,2.39859
1399537650564,2.41490
1399537710564,2.39225
1399537770564,2.42240
1399537830564,2.42529
1399537890564,2.37239
1399537950564,2.42886
1399538010564,2.44638
1399538070564,2.43293
1399538130564,2.42721
1399538190564,2.41583
1399538250564,2.44760
1399538310564,2.42037
1399538370564,2.42073
1399538430564,2.39802
1399538490564,2.41787
1399538550564,2.43924
1399538610564,2.40622
1399538670564,2.41751
1399538730564,2.41177
1399538790564,2.43577
1399538850564,2.41620
1399538910564,2.41125
1399538970564,2.40152
1399539030564,2.38251
1399539090564,2.39637
1399539150564,2.42233
1399539210564,2.40195
1399539270564,2.40439
1399539330564,2.36836
1399539390564,2.40156
1399539450564,2.39839
1399539510564,2.45820
1399539570564,2.42371
1399539630573,2.37796
1399539690573,2.49496
1399539750573,2.38731
1399539810573,2.40699
1399539870573,2.40234
1399539930573,2.39770
1399539990573,2.40767
1399540050573,2.37863
1399540110573,2.42203
1399540170573,2.41676
1399540230573,2.39527
1399540290573,2.36465
1399540350573,2.39971
1399540410573,2.38813
1399540470573,2.41717
1399540530573,2.37642
1399540590573,2.38379
1399540650573,2.42169
1399540710573,2.42323
1399540770573,2.39784
1399540830573,2.39760
1399540890573,2.35733
1399540950573,2.38948
1399541010573,2.39724
1399541070573,2.39434
1399541130573,2.39078
1399541190573,2.40092
1399541250573,2.41963
1399541310573,2.38083
1399541370573,2.40736
1399541430573,2.42492
1399541490573,2.41359
1399541550573,2.39340
1399541610573,2.41017
1399541670573,2.40971
1399541730573,2.40842
1399541790573,2.40571
1399541850573,2.31870
1399541910573,2.39322
1399541970573,2.39632
1399542030573,2.39580
1399542090573,2.39813
1399542150573,2.41187
1399542210573,2.43177
1399542270573,2.40262
1399542330573,2.40252
1399542390573,2.41572
1399542450573,2.40171
1399542510573,2.44117
1399542570573,2.40341
1399542630573,2.40969
1399542690573,2.41854
1399542750573,2.43581
1399542810573,2.11429
1399542870573,2.46011
1399542930573,2.40611
1399542990573,2.42317
1399543050573,2.42146
1399543110573,2.42298
1399543170573,2.44361
1399543230582,2.43216
1399543290582,2.48109
1399543350582,2.49948
1399543410582,2.52634
1399543470582,2.49977
1399543530582,2.53215
1399543590582,2.52250
1399543650582,2.59043
1399543710582,2.60836
1399543770582,2.62629
1399543830582,2.62611
1399543890582,2.66184
1399543950582,2.66644
1399544010582,2.62051
1399544070582,2.55196
1399544130582,2.56080
1399544190582,2.58787
1399544250582,2.57286
1399544310582,2.58357
1399544370582,2.58460
1399544430582,2.55809
1399544490582,2.57875
1399544550582,2.56118
1399544610582,2.56627
1399544670582,2.55534
1399544730582,2.55564
1399544790582,2.55492
1399544850582,2.59570
1399544910582,2.54924
1399544970582,2.55965
1399545030582,2.58059
1399545090582,2.54347
1399545150582,2.54928
1399545210582,2.61409
1399545270582,2.54974
1399545330582,2.57555
1399545390582,2.57580
1399545450582,2.60013
1399545510582,2.56960
1399545570582,2.56956
1399545630582,2.56719
1399545690582,2.53158
1399545750582,2.56379
1399545810582,2.57757
1399545870582,2.56056
1399545930582,2.59399
1399545990582,2.55796
1399546050582,2.58492
1399546110582,2.58858
1399546170582,2.57097
1399546230582,2.59603
1399546290582,2.60311
1399546350582,2.57547
1399546410582,2.57248
1399546470582,2.61210
1399546530582,2.61162
1399546590582,2.60527
1399546650582,2.62353
1399546710582,2.63610
1399546770582,2.64083
1399546830591,2.64713
1399546890591,2.64754
1399546950591,2.63355
1399547010591,2.66653
1399547070591,2.64905
1399547130591,2.63731
1399547190591,2.64625
1399547250591,2.67228
1399547310591,2.64089
1399547370591,2.62647
1399547430591,2.68497
1399547490591,2.65520
1399547550591,2.65196
1399547610591,2.65532
1399547670591,2.67871
1399547730591,2.66296
1399547790591,2.65945
1399547850591,2.67938
1399547910591,2.69169
1399547970591,2.67561
1399548030591,2.69688
1399548090591,2.66393
1399548150591,2.68098
1399548210591,2.66574
1399548270591,2.63221
1399548330591,2.65583
1399548390591,2.67504
1399548450591,2.65886
1399548510591,2.64183
1399548570591,2.62884
1399548630591,2.63700
1399548690591,2.64520
1399548750591,2.61509
1399548810591,2.59221
1399548870591,2.61137
1399548930591,2.64144
1399548990591,2.57447
1399549050591,2.59777
1399549110591,2.61419
1399549170591,2.60869
1399549230591,2.56841
1399549290591,2.61159
1399549350591,2.58010
1399549410591,2.57143
1399549470591,2.58383
1399549530591,2.58886
1399549590591,2.58520
1399549650591,2.54856
1399549710591,2.59133
1399549770591,2.55328
1399549830591,2.59964
1399549890591,2.57223
1399549950591,2.57105
1399550010591,2.57303
1399550070591,2.56362
1399550130591,2.58620
1399550190591,2.58575
1399550250591,2.41720
1399550310591,2.56268
1399550370591,2.54301
1399550430600,2.55967
1399550490600,2.55128
1399550550600,2.57707
1399550610600,2.57051
1399550670600,2.56658
1399550730600,2.59781
1399550790600,2.56432
1399550850600,2.53483
1399550910600,2.57013
1399550970600,2.56856
1399551030600,2.56202
1399551090600,2.54505
1399551150600,2.56203
1399551210600,2.56402
1399551270600,2.58376
1399551330600,2.57710
1399551390600,2.55866
1399551450600,2.56002
1399551510600,2.55678
1399551570600,2.57448
1399551630600,2.57417
1399551690600,2.55697
1399551750600,2.53792
1399551810600,2.51692
1399551870600,2.55210
1399551930600,2.53606
1399551990600,2.59820
1399552050600,2.55451
1399552110600,2.49322
1399552170600,2.56286
1399552230600,2.54114
1399552290600,2.51917
1399552350600,2.54471
1399552410600,2.52467
1399552470600,2.55024
1399552530600,2.53540
1399552590600,2.50644
1399552650600,2.52542
1399552710600,2.51333
1399552770600,2.49495
1399552830600,2.50798
1399552890600,2.51066
1399552950600,2.51549
1399553010600,2.52100
1399553070600,2.49520
1399553130600,2.51267
1399553190600,2.46884
1399553250600,2.50344
1399553310600,2.48568
1399553370600,2.49711
1399553430600,2.48428
1399553490600,2.47619
1399553550600,2.46219
1399553610600,2.48462
1399553670600,2.46336
1399553730600,2.51313
1399553790600,2.49341
1399553850600,2.49240
1399553910600,2.46196
1399553970600,2.48841
1399554030609,2.45504
1399554090609,2.48585
1399554150609,2.46496
1399554210609,2.45165
1399554270609,2.49885
1399554330609,2.47501
1399554390609,2.50169
1399554450609,2.47907
1399554510609,2.54080
1399554570609,2.45113
1399554630609,2.48713
1399554690609,2.46304
1399554750609,2.46162
1399554810609,2.48016
1399554870609,2.48781
1399554930609,2.48783
1399554990609,2.48420
1399555050609,2.44180
1399555110609,2.48872
1399555170609,2.49019
1399555230609,2.47252
1399555290609,2.45672
1399555350609,2.47397
1399555410609,2.47158
1399555470609,2.44722
1399555530609,2.46720
1399555590609,2.45543
1399555650609,2.45297
1399555710609,2.48259
1399555770609,2.42810
1399555830609,2.44586
1399555890609,2.44371
1399555950609,2.45537
1399556010609,2.47032
1399556070609,2.45547
1399556130609,2.41079
1399556190609,2.45653
1399556250609,2.45151
1399556310609,2.48944
1399556370609,2.43291
1399556430609,2.43972
1399556490609,2.43842
1399556550609,2.46827
1399556610609,2.43526
1399556670609,2.46122
1399556730609,2.45821
1399556790609,2.43489
1399556850609,2.42116
1399556910609,2.45600
1399556970609,2.55869
1399557030609,2.43464
1399557090609,2.44690
1399557150609,2.24922
1399557210609,2.46608
1399557270609,2.45798
1399557330609,2.46079
1399557390609,2.44683
1399557450609,2.44777
1399557510609,2.45692
1399557570609,2.41678
1399557630618,2.42989
1399557690618,2.44275
1399557750618,2.46505
1399557810618,2.43782
1399557870618,2.43137
1399557930618,2.45312
1399557990618,2.45128
1399558050618,2.45524
1399558110618,2.45074
1399558170618,2.45172
1399558230618,2.43239
1399558290618,2.45399
1399558350618,2.45516
1399558410618,2.42824
1399558470618,2.48227
1399558530618,2.45152
1399558590618,2.47432
1399558650618,2.40316
1399558710618,2.47006
1399558770618,2.43091
1399558830618,2.44266
1399558890618,2.41947
1399558950618,2.41028
1399559010618,2.41747
1399559070618,2.43871
1399559130618,2.45730
1399559190618,2.45115
1399559250618,2.44438
1399559310618,2.42478
1399559370618,2.45696
1399559430618,2.42359
1399559490618,2.44661
1399559550618,2.44898
1399559610618,2.43770
1399559670618,2.44617
1399559730618,2.43804
1399559790618,2.44099
1399559850618,2.46720
1399559910618,2.42337
1399559970618,2.45712
1399560030618,2.43967
1399560090618,2.44829
1399560150618,2.45360
1399560210618,2.47197
1399560270618,2.45989
1399560330618,2.45165
1399560390618,2.44970
1399560450618,2.43794
1399560510618,2.45561
1399560570618,2.43277
1399560630618,2.43123
1399560690618,2.44759
1399560750618,2.44800
1399560810618,2.44409
1399560870618,2.44576
1399560930618,2.43376
1399560990618,2.44120
1399561050618,2.46740
1399561110618,2.47520
1399561170618,2.43895
1399561230627,2.48130
1399561290627,2.44215
1399561350627,2.44300
1399561410627,2.44085
1399561470627,2.42559
1399561530627,2.43560
1399561590627,2.47513
1399561650627,2.45650
1399561710627,2.44315
1399561770627,2.48962
1399561830627,2.46604
1399561890627,2.45116
1399561950627,2.45481
1399562010627,2.48321
1399562070627,2.48489
1399562130627,2.48261
1399562190627,2.50371
1399562250627,2.43682
1399562310627,2.48198
1399562370627,2.46077
1399562430627,2.48011
1399562490627,2.46558
1399562550627,2.46931
1399562610627,2.43072
1399562670627,2.45518
1399562730627,2.45889
1399562790627,2.49345
1399562850627,2.46306
1399562910627,2.47181
1399562970627,2.46645
1399563030627,2.47738
1399563090627,2.45716
1399563150627,2.50981
1399563210627,2.45030
1399563270627,2.47237
1399563330627,2.45310
1399563390627,2.44086
1399563450627,2.47777
1399563510627,2.46600
1399563570627,2.45080
1399563630627,2.46798
1399563690627,2.47935
1399563750627,2.45594
1399563810627,2.48595
1399563870627,2.50403
1399563930627,2.45178
1399563990627,2.47318
1399564050627,2.46672
1399564110627,2.48259
1399564170627,2.46235
1399564230627,2.49009
1399564290627,2.48786
1399564350627,2.47567
1399564410627,2.49119
1399564470627,2.47984
1399564530627,2.48643
1399564590627,2.44601
1399564650627,2.50924
1399564710627,2.50051
1399564770627,2.43710
1399564830636,2.49538
1399564890636,2.45822
1399564950636,2.46318
1399565010636,2.48528
1399565070636,2.44767
1399565130636,2.48365
1399565190636,2.49841
1399565250636,2.46164
1399565310636,2.46024
1399565370636,2.46844
1399565430636,2.48123
1399565490636,2.45140
1399565550636,2.48067
1399565610636,2.49709
1399565670636,2.52657
1399565730636,2.50844
1399565790636,2.49752
1399565850636,2.47241
1399565910636,2.46378
1399565970636,2.46410
1399566030636,2.46580
1399566090636,2.45488
1399566150636,2.46182
1399566210636,2.48972
1399566270636,2.47912
1399566330636,2.48261
1399566390636,2.46046
1399566450636,2.47930
1399566510636,2.45058
1399566570636,2.45634
1399566630636,2.46506
1399566690636,2.46380
1399566750636,2.47120
1399566810636,2.47316
1399566870636,2.46535
1399566930636,2.42060
1399566990636,2.46023
1399567050636,2.44265
1399567110636,2.42583
1399567170636,2.48107
1399567230636,2.46840
1399567290636,2.46694
1399567350636,2.42905
1399567410636,2.44820
1399567470636,2.46927
1399567530636,2.45579
1399567590636,2.48944
1399567650636,2.47396
1399567710636,2.45955
1399567770636,2.45021
1399567830636,2.44329
1399567890636,2.44391
1399567950636,2.46175
1399568010636,2.48984
1399568070636,2.44955
1399568130636,2.44001
1399568190636,2.44910
1399568250636,2.43911
1399568310636,2.43215
1399568370636,2.48312
1399568430645,2.46912
1399568490645,2.49486
1399568550645,2.45933
1399568610645,2.44143
1399568670645,2.48973
1399568730645,2.46947
1399568790645,2.45385
1399568850645,2.45654
1399568910645,2.45738
1399568970645,2.48908
1399569030645,2.45285
1399569090645,2.47846
1399569150645,2.48698
1399569210645,2.45091
1399569270645,2.45215
1399569330645,2.42081
1399569390645,2.46936
1399569450645,2.46181
1399569510645,2.40429
1399569570645,2.46534
1399569630645,2.46615
1399569690645,2.44215
1399569750645,2.43773
1399569810645,2.42838
1399569870645,2.44988
1399569930645,2.44966
1399569990645,2.49056
1399570050645,2.45156
1399570110645,2.43242
1399570170645,2.45321
1399570230645,2.42809
1399570290645,2.44464
1399570350645,2.44898
1399570410645,2.42283
1399570470645,2.43803
1399570530645,2.45307
1399570590645,2.41549
1399570650645,2.46948
1399570710645,2.42873
1399570770645,2.42700
1399570830645,2.43099
1399570890645,2.49145
1399570950645,2.42983
1399571010645,2.42784
1399571070645,2.40883
1399571130645,2.44451
1399571190645,2.43561
1399571250645,2.42724
1399571310645,2.41673
1399571370645,2.38534
1399571430645,2.42625
1399571490645,2.43836
1399571550645,2.41908
1399571610645,2.40791
1399571670645,2.43282
1399571730645,2.43507
1399571790645,2.40533
1399571850645,2.39821
1399571910645,2.40204
1399571970645,2.42398
1399572030655,2.39323
1399572090655,2.40913
1399572150655,2.39909
1399572210655,2.41669
1399572270655,2.41662
1399572330655,2.41483
1399572390655,2.40310
1399572450655,2.40693
1399572510655,2.41378
1399572570655,2.36577
1399572630655,2.40398
1399572690655,2.40221
1399572750655,2.40827
1399572810655,2.40245
1399572870655,2.40656
1399572930655,2.40876
1399572990655,2.41598
1399573050655,2.40495